Location: Saratoga Springs
(43.0831°N, 73.7850°W)
Time: 15:10:19
(UTC-04:00)

Explorer 11/Cluster Stage 4 - Visible Passes

Search period start: 19 April 2024 00:00
Search period end: 29 April 2024 00:00
Orbit: 465 x 1220 km, 28.8° (Epoch: 18 April)

Date Brightness Start Highest point End Pass type
(mag) Time Alt. Az. Time Alt. Az. Time Alt. Az.
19 Apr 8.5 03:34:38 17° SSE 03:34:38 17° SSE 03:37:08 10° SE visible
19 Apr 8.5 05:16:21 10° SW 05:20:23 19° S 05:25:01 10° SE visible
20 Apr 8.8 03:18:32 13° SE 03:18:32 13° SE 03:19:28 10° SE visible
20 Apr 8.4 05:00:15 13° SW 05:03:01 17° S 05:07:10 10° SSE visible
21 Apr 8.3 04:44:14 14° SSW 04:45:40 16° S 04:49:14 10° SSE visible
22 Apr 8.4 04:28:18 14° S 04:28:21 14° S 04:31:13 10° SSE visible
23 Apr 8.6 04:12:28 11° S 04:12:28 11° S 04:13:03 10° SSE visible
